Location: Cork
(51.8990°N, 8.4960°W)
Time: 02:35:57
(UTC+00:00)

Iridium 66 - Visible Passes

Search period start: 30 January 2015 00:00
Search period end: 09 February 2015 00:00
Orbit: 776 x 779 km, 86.4° (Epoch: 29 January)

Date Brightness Start Highest point End Pass type
(mag) Time Alt. Az. Time Alt. Az. Time Alt. Az.
30 Jan 7.2 06:41:28 10° SSE 06:46:24 46° E 06:51:25 10° NNE visible
30 Jan 6.2 18:45:40 10° N 18:50:56 80° W 18:56:08 10° S visible
30 Jan 9.1 20:28:15 10° NW 20:30:53 14° WNW 20:33:16 10° W visible
31 Jan 8.1 06:08:41 10° SE 06:13:03 29° E 06:17:31 10° NNE visible
31 Jan 6.0 18:12:09 10° N 18:17:20 63° E 18:22:31 10° SSE visible
31 Jan 8.5 19:53:40 10° NNW 19:57:41 22° WNW 20:01:34 10° SW visible
01 Feb 8.8 05:36:29 10° ESE 05:39:48 18° ENE 05:43:18 10° NE visible
01 Feb 6.0 07:14:45 10° S 07:19:58 79° W 07:25:14 10° N visible
01 Feb 7.7 19:19:38 10° NNW 19:24:23 36° W 19:29:04 10° SSW visible
02 Feb 9.3 05:05:42 10° E 05:06:39 11° ENE 05:07:53 10° ENE visible
02 Feb 6.6 06:41:19 10° S 06:46:27 63° E 06:51:38 10° N visible
02 Feb 6.7 18:45:51 10° N 18:51:00 59° W 18:56:06 10° SSW visible
03 Feb 7.5 06:08:16 10° SSE 06:13:02 38° E 06:17:52 10° NNE visible
03 Feb 6.0 18:12:13 10° N 18:17:29 84° E 18:22:43 10° S visible
03 Feb 8.9 19:54:18 10° NW 19:57:36 17° WNW 20:00:42 10° WSW visible
04 Feb 8.4 05:35:42 10° SE 05:39:43 24° E 05:43:52 10° NNE visible
04 Feb 6.1 07:14:58 10° SSW 07:20:07 58° W 07:25:18 10° N visible
04 Feb 8.3 19:19:59 10° NNW 19:24:21 27° W 19:28:37 10° SW visible
05 Feb 9.0 05:03:50 10° ESE 05:06:31 15° ENE 05:09:24 10° NE visible
05 Feb 6.1 06:41:18 10° S 06:46:32 86° E 06:51:47 10° N visible
05 Feb 7.4 18:46:05 10° NNW 18:51:01 43° W 18:55:55 10° SSW visible
06 Feb 6.9 06:08:01 10° SSE 06:13:03 52° E 06:18:08 10° NNE visible
06 Feb 6.4 18:12:21 10° N 18:17:35 72° W 18:22:46 10° S visible
06 Feb 9.2 19:55:19 10° NW 19:57:28 12° WNW 19:59:21 10° W visible
07 Feb 7.9 05:35:09 10° SE 05:39:40 32° E 05:44:17 10° NNE visible
07 Feb 6.4 07:15:21 10° SSW 07:20:19 43° WNW 07:25:18 10° N visible
07 Feb 8.8 19:20:30 10° NNW 19:24:17 20° WNW 19:27:56 10° WSW visible
08 Feb 8.6 05:02:49 10° ESE 05:06:24 20° ENE 05:10:09 10° NNE visible
08 Feb 6.0 06:41:26 10° SSW 06:46:39 71° W 06:51:53 10° N visible
08 Feb 8.0 18:46:23 10° NNW 18:51:00 32° W 18:55:34 10° SW visible
